This is the latest recevied weather packets stored in our database for station/object WA6ODQ-13. If no packets are shown the sender has not sent any weather packets the latest 10 day(s).
| Time | Temp. | Humidity | Pressure | Rain* | Wind** | Luminosity | Snow |
|---|---|---|---|---|---|---|---|
| 1788376220 | 21.11° C | 70% | 1016.2 hPa | 0 mm | - | 592 W/m² | - |
| 1788375916 | 21.11° C | 69% | 1016.2 hPa | 0 mm | - | 295 W/m² | - |
| 1788375612 | 21.11° C | 70% | 1016.3 hPa | 0 mm | - | 619 W/m² | - |
| 1788375307 | 20.56° C | 71% | 1016.2 hPa | 0 mm | - | 249 W/m² | - |
| 1788375003 | 21.11° C | 71% | 1016.4 hPa | 0 mm | - | 268 W/m² | - |
| 1788374698 | 21.11° C | 70% | 1016.2 hPa | 0 mm | - | 314 W/m² | - |
| 1788374393 | 21.11° C | 69% | 1016.1 hPa | 0 mm | - | 204 W/m² | - |
| 1788374090 | 21.11° C | 68% | 1016.1 hPa | 0 mm | - | 237 W/m² | - |
| 1788373786 | 21.11° C | 68% | 1016.2 hPa | 0 mm | - | 224 W/m² | - |
| 1788373482 | 21.11° C | 69% | 1016 hPa | 0 mm | - | 220 W/m² | - |
| 1788373177 | 21.11° C | 68% | 1015.9 hPa | 0 mm | - | 195 W/m² | - |
| 1788372872 | 21.11° C | 68% | 1016 hPa | 0 mm | - | 153 W/m² | - |
| 1788372566 | 21.11° C | 67% | 1016.1 hPa | 0 mm | - | 197 W/m² | - |
| 1788372262 | 21.67° C | 66% | 1015.9 hPa | 0 mm | - | 189 W/m² | - |
| 1788371957 | 22.22° C | 65% | 1015.8 hPa | 0 mm | - | 207 W/m² | - |
| 1788371652 | 22.22° C | 64% | 1015.7 hPa | 0 mm | - | 318 W/m² | - |
| 1788371348 | 21.67° C | 66% | 1015.8 hPa | 0 mm | - | 591 W/m² | - |
| 1788371045 | 21.11° C | 67% | 1015.8 hPa | 0 mm | - | 728 W/m² | - |
| 1788370734 | 20.56° C | 68% | 1015.6 hPa | 0 mm | - | 389 W/m² | - |
| 1788370434 | 20.56° C | 68% | 1015.8 hPa | 0 mm | - | 197 W/m² | - |
| 1788370128 | 20.56° C | 68% | 1015.8 hPa | 0 mm | - | 199 W/m² | - |
| 1788369822 | 21.11° C | 67% | 1015.9 hPa | 0 mm | - | 143 W/m² | - |
| 1788369518 | 21.11° C | 67% | 1015.7 hPa | 0 mm | - | 349 W/m² | - |
| 1788369213 | 20.56° C | 67% | 1015.7 hPa | 0 mm | - | 320 W/m² | - |
| 1788368910 | 20.56° C | 68% | 1015.5 hPa | 0 mm | - | 194 W/m² | - |
* Rain latest hour (hover to see other rain measurements)
** Current wind speed in m/s (hover to see current wind gust speed)